[[{"header":{"parameterUnit":"m.s-1","parameterCategory":2,"la1":30.2991,"la2":30.254,"lo1":-89.0895,"lo2":-89.0444,"dy":0.0017,"dx":0.0017,"nx":28,"ny":28,"refTime":"2025-08-03T03:00:00:Z","depth":"0","parameterNumber":2,"parameterNumberName":"U-component_of_CURRENTS"},"data":[0,0,0,0,0,0,0,0,0,0,0,0,0,0,0,0,0,0,0,0,0,0,0,0,0,0,0,0,0,0,0,0,0,0,0,0,0,0,0,0,0,0,0,0,0,0,0,0,0,0,0,0,0,0,0,0,0,0,-0.3383,-0.3383,0,-0.3371,-0.3371,-0.337,-0.3309,-0.3308,-0.3307,-0.3307,-0.3206,-0.3204,-0.3202,0,0,0,0,0,0,0,0,0,0,0,0,0,-0.3313,-0.3314,-0.3383,-0.3383,-0.3384,-0.3372,-0.3371,-0.337,-0.3309,-0.3308,-0.3307,-0.3306,-0.3206,-0.3204,-0.3201,0,0,0,0,0,0,0,0,0,0,0,0,0,-0.3318,-0.3314,-0.3383,-0.3359,-0.3357,-0.3372,-0.337,-0.3369,-0.3309,-0.3308,-0.3307,-0.3306,-0.3207,-0.3204,-0.3201,-0.3202,0,0,-0.3192,-0.319,0,0,0,0,0,0,0,0,-0.3318,-0.332,-0.3361,-0.336,-0.3359,-0.3348,-0.3309,-0.3312,-0.3309,-0.3318,-0.3307,-0.3305,-0.3251,-0.3245,-0.3234,-0.3198,-0.3193,-0.3191,-0.319,-0.3188,-0.3187,0,0,0,0,0,0,0,-0.3318,-0.332,-0.337,-0.3362,-0.3361,-0.3336,-0.3334,-0.3309,-0.3282,-0.3317,-0.3315,-0.3328,-0.3248,-0.3237,-0.3231,-0.3192,-0.3191,-0.3189,-0.3187,-0.3186,-0.3193,-0.3195,0,0,0,0,0,0,-0.334,-0.332,-0.337,-0.337,-0.3345,-0.3338,-0.3337,-0.3345,-0.3284,-0.3277,-0.3329,-0.3325,-0.3243,-0.3234,-0.3227,-0.326,-0.3188,-0.3185,-0.3184,-0.3191,-0.3194,-0.3196,0,0,0,0,0,0,-0.3338,-0.3344,-0.3371,-0.3351,-0.3354,-0.3342,-0.3351,-0.3346,-0.3337,-0.3296,-0.3285,-0.3326,-0.3242,-0.3231,-0.322,-0.3254,-0.3184,-0.3181,-0.3189,-0.3192,-0.3195,-0.3303,0,0,0,0,0,0,-0.3336,-0.3344,-0.3343,-0.3353,-0.3357,-0.34,-0.3353,-0.3347,-0.3351,-0.3345,-0.329,-0.328,-0.324,-0.3225,-0.3217,-0.3249,-0.3179,-0.3186,-0.319,-0.3194,-0.3297,-0.331,-0.332,0,0,0,0,0,-0.3334,-0.3348,-0.3342,-0.3348,-0.336,-0.3402,-0.3401,-0.3382,-0.3352,-0.3365,-0.3325,-0.3281,-0.3244,-0.3224,-0.3214,-0.3246,-0.3184,-0.3189,-0.3194,-0.3292,-0.3307,-0.332,0,0,0,0,0,0,-0.3312,-0.3344,-0.3338,-0.3359,-0.3388,-0.3396,-0.3398,-0.3391,-0.3369,-0.3352,-0.3299,-0.3288,-0.3294,-0.3258,-0.3238,-0.3262,-0.3211,-0.3213,-0.3289,-0.3303,-0.3314,-0.3347,-0.3176,0,0,0,0,0,-0.3312,-0.3324,-0.3364,-0.3375,-0.3395,-0.3396,-0.3403,-0.3403,-0.3395,-0.3383,-0.3349,-0.3316,-0.3307,-0.3294,-0.3276,-0.3282,-0.3246,-0.33,-0.3312,-0.3322,-0.3344,-0.3317,-0.3328,-0.3211,-0.3211,-0.3211,0,0,-0.3303,-0.3323,-0.3326,-0.3371,-0.3379,-0.3431,-0.3395,-0.3422,-0.3456,-0.3376,-0.3385,-0.3353,-0.3319,-0.3332,-0.3332,-0.3303,-0.3337,-0.3327,-0.3336,-0.3353,-0.3323,-0.3334,-0.3344,-0.3214,-0.3214,-0.3213,0,0,-0.3316,-0.3316,-0.3345,-0.3386,-0.343,-0.3443,-0.3461,-0.3483,-0.348,-0.3495,-0.3455,-0.3453,-0.3417,-0.3418,-0.3409,-0.3477,-0.3401,-0.3463,-0.3543,-0.3517,-0.3526,-0.3533,-0.35,-0.3504,-0.3466,-0.3466,-0.3466,0,-0.33,-0.3351,-0.3361,-0.342,-0.3458,-0.3459,-0.3521,-0.3532,-0.3543,-0.3554,-0.3512,-0.3493,-0.3468,-0.3502,-0.3533,-0.3505,-0.3465,-0.3489,-0.3531,-0.3538,-0.3544,-0.3508,-0.3511,-0.3472,-0.3471,-0.347,-0.347,0,-0.3357,-0.3403,-0.3429,-0.35,-0.3542,-0.3593,-0.3638,-0.3658,-0.3644,-0.3655,-0.3671,-0.3631,-0.3621,-0.3621,-0.3598,-0.3642,-0.3591,-0.3549,-0.3493,-0.3562,-0.352,-0.3521,-0.348,-0.3478,-0.3476,-0.3475,0,0,-0.3295,-0.3441,-0.3446,-0.3506,-0.3593,-0.3635,-0.37,-0.3765,-0.3794,-0.3788,-0.3816,-0.3823,-0.3788,-0.378,-0.3744,-0.3736,-0.3752,-0.367,-0.3666,-0.3635,-0.368,-0.3445,-0.3423,-0.3699,-0.37,-0.3701,-0.3632,0,-0.3331,-0.3462,-0.3523,-0.3634,-0.3706,-0.3753,-0.3814,-0.3868,-0.3877,-0.39,-0.3881,-0.3882,-0.3852,-0.3832,-0.3831,-0.3759,-0.3759,-0.3774,-0.3622,-0.3618,-0.3397,-0.3418,-0.3157,-0.3055,-0.3632,-0.3633,-0.3633,0,-0.3352,-0.3447,-0.3572,-0.3718,-0.375,-0.3812,-0.3897,-0.3956,-0.4005,-0.4006,-0.4012,-0.3978,-0.3984,-0.3927,-0.3865,-0.3864,-0.3805,-0.3748,-0.3742,-0.3489,-0.3384,-0.308,-0.3034,-0.298,-0.3633,-0.3633,-0.3633,0,-0.3291,-0.3467,-0.3565,-0.3619,-0.3783,-0.3833,-0.3903,-0.3977,-0.4013,-0.4059,-0.4046,-0.4058,-0.3999,-0.3961,-0.3845,-0.3854,-0.3741,-0.3727,-0.3473,-0.3456,-0.3187,-0.3142,-0.3064,-0.3708,-0.3709,-0.3709,-0.3709,0,-0.3288,-0.3361,-0.3547,-0.3601,-0.3709,-0.3821,-0.3902,-0.3969,-0.4031,-0.4033,-0.4079,-0.4023,-0.3997,-0.3915,-0.386,-0.3633,-0.3744,-0.3489,-0.3418,-0.3214,-0.3175,-0.3076,-0.3133,-0.3706,-0.3707,-0.3707,-0.3708,0,-0.3185,-0.3312,-0.3437,-0.3627,-0.3681,-0.3748,-0.3892,-0.393,-0.4,-0.3989,-0.3991,-0.3979,-0.3835,-0.3791,-0.3683,-0.3575,-0.3338,-0.3353,-0.3106,-0.3006,-0.2676,-0.2748,-0.263,-0.2576,-0.3055,-0.3048,-0.3043,0,-0.3138,-0.3195,-0.3416,-0.3474,-0.3556,-0.3676,-0.3735,-0.3882,-0.3902,-0.3909,-0.3866,-0.3767,-0.3588,-0.3357,-0.3173,-0.3,-0.3084,-0.2703,-0.2676,-0.2612,-0.2645,-0.2733,-0.2708,-0.2382,-0.2371,-0.2363,-0.2356,0,-0.3028,-0.3108,-0.3205,-0.3345,-0.3434,-0.3532,-0.3623,-0.3632,-0.3729,-0.366,-0.3485,-0.3343,-0.311,-0.2739,-0.2564,-0.2468,-0.2577,-0.2517,-0.2521,-0.2163,-0.2188,-0.2113,-0.2501,-0.2281,-0.2289,-0.2294,-0.2298,-0.2301,-0.2891,-0.2934,-0.3054,-0.3163,-0.3265,-0.3288,-0.3247,-0.3288,-0.3206,-0.298,-0.301,-0.2598,-0.2364,-0.2003,-0.1957,-0.1732,-0.1977,-0.1659,-0.1771,-0.1882,-0.1765,-0.1971,-0.1619,-0.1622,-0.1626,-0.1628,-0.1631,0,-0.2665,-0.2741,-0.2852,-0.2947,-0.2944,-0.3076,-0.3073,-0.2927,-0.2672,-0.2469,-0.2184,-0.1617,-0.1327,-0.1256,-0.1067,-0.1004,-0.1087,-0.1054,-0.1162,-0.119,-0.1381,-0.1279,-0.075,-0.075,-0.075,-0.075,-0.075,-0.075,-0.2537,-0.2537,-0.2621,-0.2564,-0.2614,-0.2462,-0.2375,-0.2171,-0.1963,-0.1404,-0.0979,-0.0752,-0.0714,-0.0722,-0.0671,-0.0662,-0.0781,-0.0702,-0.0909,-0.1069,-0.1137,-0.1202,-0.1117,-0.0562,-0.0562,-0.0596,-0.0597,-0.0597]},{"header":{"parameterUnit":"m.s-1","parameterCategory":2,"la1":30.2991,"la2":30.254,"lo1":-89.0895,"lo2":-89.0444,"dy":0.0017,"dx":0.0017,"nx":28,"ny":28,"refTime":"2025-08-03T03:00:00:Z","depth":"0","parameterNumber":3,"parameterNumberName":"V-component_of_CURRENTS"},"data":[0,0,0,0,0,0,0,0,0,0,0,0,0,0,0,0,0,0,0,0,0,0,0,0,0,0,0,0,0,0,0,0,0,0,0,0,0,0,0,0,0,0,0,0,0,0,0,0,0,0,0,0,0,0,0,0,0,0,-0.0579,-0.0578,0,-0.0465,-0.0464,-0.0463,-0.0372,-0.0371,-0.037,-0.0369,-0.0166,-0.0162,-0.0157,0,0,0,0,0,0,0,0,0,0,0,0,0,-0.0672,-0.0671,-0.0579,-0.0578,-0.0577,-0.0466,-0.0464,-0.0462,-0.0372,-0.0371,-0.037,-0.0369,-0.0168,-0.0162,-0.0157,0,0,0,0,0,0,0,0,0,0,0,0,0,-0.0601,-0.067,-0.0579,-0.0519,-0.0513,-0.0466,-0.0464,-0.0462,-0.0372,-0.0371,-0.037,-0.0369,-0.017,-0.0163,-0.0156,-0.0137,0,0,-0.0135,-0.0132,0,0,0,0,0,0,0,0,-0.0605,-0.0598,-0.0529,-0.0523,-0.0516,-0.0433,-0.0422,-0.0349,-0.0372,-0.0424,-0.0369,-0.0368,-0.0249,-0.0235,-0.0216,-0.0127,-0.0119,-0.0134,-0.013,-0.0127,-0.0125,0,0,0,0,0,0,0,-0.0611,-0.0602,-0.0533,-0.0528,-0.052,-0.0482,-0.0471,-0.0408,-0.0342,-0.042,-0.0413,-0.0403,-0.0244,-0.0223,-0.021,-0.0116,-0.0134,-0.0128,-0.0124,-0.0121,0.0021,0.002,0,0,0,0,0,0,-0.0631,-0.0607,-0.0537,-0.053,-0.056,-0.0481,-0.0469,-0.046,-0.0344,-0.0327,-0.0404,-0.0399,-0.0236,-0.0219,-0.0203,-0.0171,-0.0127,-0.012,-0.0116,0.0021,0.0021,0.002,0,0,0,0,0,0,-0.0633,-0.0626,-0.0541,-0.0566,-0.0553,-0.0481,-0.0471,-0.0458,-0.0434,-0.0334,-0.0314,-0.0393,-0.0234,-0.0213,-0.0148,-0.0162,-0.0117,-0.0111,0.0022,0.0021,0.002,-0.0109,0,0,0,0,0,0,-0.0636,-0.0627,-0.0633,-0.0568,-0.0553,-0.0527,-0.0472,-0.0457,-0.043,-0.0422,-0.0318,-0.0298,-0.0231,-0.0159,-0.0141,-0.0152,-0.0105,0.0022,0.0021,0.0021,-0.0104,-0.0114,-0.0122,0,0,0,0,0,-0.064,-0.0655,-0.0634,-0.0626,-0.0561,-0.0528,-0.0517,-0.046,-0.0431,-0.0432,-0.0355,-0.0301,-0.0151,-0.0154,-0.0133,-0.0142,0.0023,0.0022,0.0021,-0.01,-0.0112,-0.0122,0,0,0,0,0,0,-0.0699,-0.0645,-0.0621,-0.0619,-0.0583,-0.0513,-0.051,-0.047,-0.0412,-0.04,-0.0303,-0.0278,-0.0225,-0.0167,-0.0172,-0.0103,-0.0057,-0.0054,-0.0156,-0.0166,-0.0175,-0.0195,-0.0099,0,0,0,0,0,-0.0717,-0.0714,-0.0656,-0.0658,-0.0642,-0.0578,-0.0559,-0.0521,-0.046,-0.0434,-0.0361,-0.0283,-0.0215,-0.0178,-0.011,-0.0074,-0.005,-0.0066,-0.0076,-0.0084,-0.0086,-0.0059,-0.0066,0.0017,0.0017,0.0017,0,0,-0.0743,-0.0713,-0.0711,-0.0671,-0.0636,-0.0637,-0.0563,-0.0543,-0.0536,-0.042,-0.0388,-0.0309,-0.0211,-0.0168,-0.014,-0.012,-0.0105,-0.0085,-0.0093,-0.009,-0.0061,-0.0069,-0.0076,0.0016,0.0016,0.0017,0,0,-0.0805,-0.0765,-0.0789,-0.0768,-0.0728,-0.0683,-0.0683,-0.0619,-0.058,-0.0541,-0.0453,-0.0384,-0.0293,-0.0223,-0.0175,-0.0193,-0.0151,-0.0175,-0.0239,-0.0215,-0.0222,-0.0227,-0.0258,-0.0266,-0.0184,-0.0184,-0.0185,0,-0.0842,-0.0861,-0.0793,-0.0815,-0.0805,-0.0714,-0.074,-0.0693,-0.0616,-0.0578,-0.055,-0.04,-0.0319,-0.0251,-0.0256,-0.0214,-0.0214,-0.021,-0.023,-0.0234,-0.0238,-0.0267,-0.0274,-0.0191,-0.019,-0.0189,-0.0189,0,-0.0923,-0.0943,-0.0956,-0.095,-0.0925,-0.0933,-0.0858,-0.0822,-0.0761,-0.0702,-0.062,-0.0512,-0.0419,-0.0389,-0.0325,-0.0303,-0.0304,-0.0246,-0.0211,-0.0255,-0.0283,-0.0287,-0.02,-0.0197,-0.0196,-0.0194,0,0,-0.099,-0.1014,-0.1016,-0.1041,-0.0997,-0.0982,-0.0958,-0.0899,-0.0868,-0.079,-0.0752,-0.0632,-0.0557,-0.0498,-0.0409,-0.0384,-0.0421,-0.034,-0.0335,-0.0389,-0.0421,-0.0282,-0.0274,-0.0375,-0.0375,-0.0376,-0.045,0,-0.1078,-0.1169,-0.1129,-0.1188,-0.1226,-0.1127,-0.1104,-0.103,-0.0946,-0.0885,-0.0761,-0.0689,-0.0604,-0.0558,-0.0521,-0.043,-0.0431,-0.041,-0.0353,-0.0353,-0.0237,-0.0272,-0.0161,-0.0203,-0.0454,-0.0454,-0.0455,0,-0.1163,-0.1216,-0.131,-0.1309,-0.1305,-0.1311,-0.1229,-0.1195,-0.1072,-0.1001,-0.0907,-0.0802,-0.0728,-0.0654,-0.0567,-0.0564,-0.0511,-0.0456,-0.0456,-0.0276,-0.0218,-0.0186,-0.0201,-0.0058,-0.0461,-0.0461,-0.046,0,-0.126,-0.132,-0.1401,-0.1413,-0.1403,-0.1394,-0.1355,-0.124,-0.1183,-0.1078,-0.1031,-0.0919,-0.086,-0.078,-0.0631,-0.062,-0.0548,-0.0515,-0.0356,-0.035,-0.0212,-0.019,-0.0085,-0.0477,-0.0476,-0.0476,-0.0476,0,-0.137,-0.1425,-0.1461,-0.1515,-0.1558,-0.1495,-0.1476,-0.141,-0.13,-0.1226,-0.1105,-0.1024,-0.0886,-0.0793,-0.069,-0.0526,-0.0597,-0.0376,-0.0343,-0.0257,-0.0238,-0.0067,-0.0037,-0.0479,-0.0478,-0.0478,-0.0477,0,-0.1469,-0.1503,-0.1598,-0.1625,-0.1624,-0.1651,-0.1567,-0.1523,-0.1426,-0.1335,-0.1306,-0.1136,-0.0993,-0.085,-0.071,-0.0584,-0.0346,-0.0379,-0.0305,-0.0258,0.0053,0.007,0.0171,0.027,-0.0247,-0.0243,-0.0241,0,-0.1524,-0.1602,-0.1691,-0.173,-0.175,-0.1755,-0.1722,-0.1609,-0.1537,-0.1369,-0.1324,-0.1172,-0.0982,-0.0743,-0.0505,-0.0319,-0.0228,-0.0121,-0.004,0.009,0.013,0.0122,0.0196,0.0038,0.0043,0.0047,0.005,0,-0.1622,-0.1665,-0.1743,-0.1838,-0.1853,-0.1832,-0.1778,-0.1735,-0.1561,-0.1438,-0.1242,-0.1089,-0.0821,-0.0489,-0.0231,-0.011,0.0022,-0.003,0.0093,0.0364,0.037,0.0476,0.0014,0.0085,0.0082,0.0079,0.0077,0.0076,-0.1656,-0.1739,-0.183,-0.1899,-0.1913,-0.1853,-0.1769,-0.1664,-0.1496,-0.1182,-0.1113,-0.0703,-0.0418,0.0009,0.0103,0.0424,0.0318,0.0536,0.0531,0.0498,0.067,0.0281,0.0426,0.0424,0.0423,0.0422,0.0421,0,-0.1653,-0.1747,-0.1851,-0.189,-0.185,-0.1851,-0.1732,-0.1565,-0.1311,-0.097,-0.0679,-0.0045,0.0275,0.0519,0.0853,0.0986,0.0973,0.1031,0.1029,0.1069,0.0724,0.0824,0.1081,0.1081,0.108,0.108,0.108,0.108,-0.1646,-0.175,-0.1816,-0.1776,-0.1762,-0.1587,-0.1473,-0.1267,-0.0978,-0.035,0.0202,0.0572,0.0894,0.1132,0.1387,0.1404,0.1497,0.147,0.1494,0.1254,0.1207,0.1162,0.1267,0.1612,0.1613,0.1878,0.188,0.1882]}],[{"header":{"parameterUnit":"m.s-1","parameterCategory":2,"la1":30.2991,"la2":30.254,"lo1":-89.0895,"lo2":-89.0444,"dy":0.0017,"dx":0.0017,"nx":28,"ny":28,"refTime":"2025-08-03T03:00:00:Z","depth":"2","parameterNumber":2,"parameterNumberName":"U-component_of_CURRENTS"},"data":[0,0,0,0,0,0,0,0,0,0,0,0,0,0,0,0,0,0,0,0,0,0,0,0,0,0,0,0,0,0,0,0,0,0,0,0,0,0,0,0,0,0,0,0,0,0,0,0,0,0,0,0,0,0,0,0,0,0,-0.3001,-0.3001,0,-0.2998,-0.2997,-0.2996,-0.2968,-0.2968,-0.2968,-0.2968,-0.2877,-0.2875,-0.2872,0,0,0,0,0,0,0,0,0,0,0,0,0,-0.2958,-0.2958,-0.3001,-0.3001,-0.3002,-0.2998,-0.2997,-0.2996,-0.2968,-0.2968,-0.2968,-0.2969,-0.2878,-0.2875,-0.2872,0,0,0,0,0,0,0,0,0,0,0,0,0,-0.296,-0.2958,-0.3001,-0.2994,-0.2994,-0.2998,-0.2997,-0.2996,-0.2968,-0.2968,-0.2968,-0.2969,-0.2879,-0.2875,-0.2871,-0.2847,0,0,-0.286,-0.2858,0,0,0,0,0,0,0,0,-0.296,-0.2961,-0.2994,-0.2994,-0.2994,-0.2991,-0.2949,-0.2945,-0.2968,-0.2969,-0.2968,-0.2969,-0.2912,-0.2906,-0.2894,-0.2842,-0.2838,-0.286,-0.2857,-0.2856,-0.2855,0,0,0,0,0,0,0,-0.296,-0.2961,-0.2991,-0.2995,-0.2995,-0.2983,-0.2983,-0.2948,-0.2932,-0.2969,-0.2969,-0.2982,-0.291,-0.2898,-0.2892,-0.2837,-0.286,-0.2856,-0.2854,-0.2853,-0.2864,-0.2866,0,0,0,0,0,0,-0.2978,-0.2961,-0.2991,-0.2992,-0.2986,-0.2985,-0.2984,-0.2985,-0.2934,-0.293,-0.2982,-0.2981,-0.2904,-0.2896,-0.2889,-0.2871,-0.2856,-0.2852,-0.285,-0.2861,-0.2864,-0.2867,0,0,0,0,0,0,-0.2977,-0.298,-0.2992,-0.2983,-0.2985,-0.2986,-0.2987,-0.2985,-0.2995,-0.2947,-0.2939,-0.2998,-0.2904,-0.2894,-0.2906,-0.2867,-0.2851,-0.2847,-0.2858,-0.2862,-0.2866,-0.2826,0,0,0,0,0,0,-0.2975,-0.2979,-0.2981,-0.2984,-0.2987,-0.2999,-0.2988,-0.2985,-0.3006,-0.3005,-0.2958,-0.2948,-0.2903,-0.2912,-0.2902,-0.2861,-0.2844,-0.2855,-0.286,-0.2864,-0.2824,-0.2828,-0.2832,0,0,0,0,0,-0.2974,-0.2972,-0.2981,-0.2985,-0.299,-0.3001,-0.2999,-0.2995,-0.3007,-0.3005,-0.3009,-0.2951,-0.2935,-0.2912,-0.2899,-0.2856,-0.2853,-0.2859,-0.2864,-0.2823,-0.2827,-0.2831,0,0,0,0,0,0,-0.2943,-0.297,-0.2979,-0.2983,-0.2999,-0.2999,-0.3002,-0.3014,-0.3014,-0.3024,-0.2981,-0.2972,-0.2963,-0.2949,-0.2925,-0.2888,-0.2884,-0.2888,-0.2857,-0.2861,-0.2865,-0.2826,-0.2841,0,0,0,0,0,-0.2944,-0.2955,-0.2978,-0.2982,-0.2995,-0.3008,-0.3015,-0.3023,-0.3031,-0.3031,-0.3009,-0.2998,-0.2973,-0.2954,-0.2937,-0.2914,-0.2883,-0.2889,-0.2893,-0.2895,-0.2865,-0.2811,-0.2804,-0.2886,-0.2886,-0.2886,0,0,-0.2934,-0.2953,-0.2958,-0.2979,-0.2991,-0.2995,-0.301,-0.3034,-0.3026,-0.302,-0.301,-0.301,-0.2981,-0.2954,-0.2947,-0.2933,-0.2868,-0.2902,-0.2903,-0.2871,-0.2816,-0.2807,-0.2799,-0.289,-0.2889,-0.2888,0,0,-0.2923,-0.2941,-0.2949,-0.2967,-0.3005,-0.3004,-0.3022,-0.3044,-0.3041,-0.3056,-0.3043,-0.3029,-0.3016,-0.2957,-0.2932,-0.2954,-0.2899,-0.2972,-0.2926,-0.2875,-0.2865,-0.2856,-0.2835,-0.2824,-0.2959,-0.2959,-0.2959,0,-0.2916,-0.2916,-0.2952,-0.2968,-0.2965,-0.3012,-0.3005,-0.3013,-0.3037,-0.3016,-0.3058,-0.3023,-0.2995,-0.2917,-0.2928,-0.2943,-0.2937,-0.2895,-0.287,-0.286,-0.2851,-0.2831,-0.282,-0.2958,-0.2958,-0.2958,-0.2958,0,-0.2904,-0.2912,-0.2921,-0.2943,-0.2946,-0.2955,-0.2974,-0.2977,-0.2998,-0.2998,-0.2974,-0.297,-0.2931,-0.2931,-0.2928,-0.2851,-0.2877,-0.2882,-0.2835,-0.2839,-0.2821,-0.2809,-0.2956,-0.2957,-0.2957,-0.2957,0,0,-0.285,-0.2901,-0.2901,-0.2897,-0.2929,-0.2924,-0.2912,-0.2884,-0.2858,-0.2902,-0.2848,-0.2831,-0.2846,-0.2823,-0.2819,-0.2777,-0.2717,-0.2808,-0.2806,-0.2744,-0.2635,-0.2479,-0.2451,-0.2723,-0.272,-0.2718,-0.2655,0,-0.2819,-0.2827,-0.2853,-0.2832,-0.2822,-0.2843,-0.2814,-0.2806,-0.2809,-0.2781,-0.2777,-0.2757,-0.2801,-0.279,-0.2751,-0.2732,-0.2683,-0.2735,-0.2677,-0.2674,-0.2497,-0.2429,-0.2267,-0.218,-0.2643,-0.2641,-0.264,0,-0.2774,-0.2779,-0.2755,-0.2747,-0.2743,-0.2743,-0.2677,-0.2671,-0.2647,-0.2653,-0.264,-0.2661,-0.2613,-0.2664,-0.2601,-0.2646,-0.2626,-0.2619,-0.2616,-0.246,-0.2492,-0.2251,-0.2141,-0.262,-0.2622,-0.2623,-0.2624,0,-0.267,-0.2696,-0.266,-0.2664,-0.267,-0.2649,-0.2655,-0.2629,-0.2591,-0.2585,-0.2551,-0.2547,-0.2531,-0.2517,-0.2516,-0.2562,-0.2447,-0.2501,-0.2338,-0.2331,-0.2167,-0.2146,-0.2415,-0.2416,-0.2416,-0.2416,-0.2416,0,-0.2586,-0.256,-0.2625,-0.2602,-0.254,-0.2594,-0.2529,-0.2525,-0.251,-0.2438,-0.2493,-0.2418,-0.2495,-0.2448,-0.2465,-0.2345,-0.2399,-0.2285,-0.2271,-0.2157,-0.2137,-0.2502,-0.2513,-0.2414,-0.2414,-0.2415,-0.2415,0,-0.2451,-0.2502,-0.2464,-0.249,-0.2488,-0.2454,-0.2458,-0.2406,-0.2428,-0.233,-0.2326,-0.2317,-0.2264,-0.2301,-0.2273,-0.2238,-0.2173,-0.2115,-0.1988,-0.1955,-0.2119,-0.213,-0.1925,-0.1918,-0.1912,-0.1908,-0.1904,0,-0.2391,-0.2354,-0.2362,-0.2329,-0.2341,-0.2325,-0.2283,-0.2337,-0.2272,-0.2233,-0.2138,-0.2112,-0.1999,-0.1909,-0.1884,-0.1839,-0.1988,-0.1653,-0.1668,-0.2045,-0.2054,-0.2074,-0.2092,-0.1481,-0.1474,-0.1468,-0.1463,0,-0.2232,-0.2238,-0.2192,-0.215,-0.2121,-0.2072,-0.2042,-0.1986,-0.2013,-0.1951,-0.1836,-0.177,-0.1667,-0.1521,-0.1469,-0.1442,-0.1654,-0.1525,-0.1911,-0.1612,-0.1614,-0.1628,-0.1663,-0.1411,-0.1416,-0.142,-0.1423,-0.1425,-0.2102,-0.2033,-0.1995,-0.1941,-0.1883,-0.1804,-0.1728,-0.1706,-0.1618,-0.1504,-0.1545,-0.1409,-0.1369,-0.1177,-0.1109,-0.1106,-0.1236,-0.1219,-0.1243,-0.1272,-0.1212,-0.1201,-0.0913,-0.0915,-0.0917,-0.0919,-0.0921,0,-0.1942,-0.1881,-0.1796,-0.1708,-0.1589,-0.1645,-0.1516,-0.1422,-0.1287,-0.1261,-0.1183,-0.0998,-0.0858,-0.087,-0.0741,-0.069,-0.0764,-0.0696,-0.0802,-0.0849,-0.0893,-0.0823,-0.0417,-0.0416,-0.0415,-0.0414,0,0,-0.1847,-0.1708,-0.1666,-0.1448,-0.1391,-0.1181,-0.1096,-0.1002,-0.0928,-0.0802,-0.0761,-0.0819,-0.0796,-0.0614,-0.0551,-0.046,-0.0673,-0.0442,-0.0836,-0.1006,-0.105,-0.1165,-0.1103,0,0,0,0,0]},{"header":{"parameterUnit":"m.s-1","parameterCategory":2,"la1":30.2991,"la2":30.254,"lo1":-89.0895,"lo2":-89.0444,"dy":0.0017,"dx":0.0017,"nx":28,"ny":28,"refTime":"2025-08-03T03:00:00:Z","depth":"2","parameterNumber":3,"parameterNumberName":"V-component_of_CURRENTS"},"data":[0,0,0,0,0,0,0,0,0,0,0,0,0,0,0,0,0,0,0,0,0,0,0,0,0,0,0,0,0,0,0,0,0,0,0,0,0,0,0,0,0,0,0,0,0,0,0,0,0,0,0,0,0,0,0,0,0,0,0.0532,0.0534,0,0.0655,0.0656,0.0657,0.0641,0.0639,0.0637,0.0635,0.0683,0.0686,0.0689,0,0,0,0,0,0,0,0,0,0,0,0,0,0.0374,0.0377,0.0532,0.0534,0.0536,0.0655,0.0656,0.0658,0.0641,0.0639,0.0636,0.0634,0.0682,0.0685,0.0689,0,0,0,0,0,0,0,0,0,0,0,0,0,0.0463,0.0377,0.0532,0.0543,0.0545,0.0654,0.0656,0.0658,0.0641,0.0639,0.0636,0.0633,0.0681,0.0685,0.069,0.0775,0,0,0.0704,0.0706,0,0,0,0,0,0,0,0,0.0458,0.0469,0.0539,0.0542,0.0545,0.0631,0.0618,0.0694,0.0642,0.0603,0.0635,0.0632,0.0662,0.0668,0.0696,0.0778,0.078,0.0704,0.0707,0.0709,0.071,0,0,0,0,0,0,0,0.0452,0.0464,0.0579,0.0541,0.0545,0.0572,0.0581,0.0633,0.0645,0.0606,0.0606,0.0623,0.0662,0.0692,0.0697,0.078,0.0704,0.0708,0.0711,0.0713,0.0922,0.0924,0,0,0,0,0,0,0.0438,0.0458,0.0576,0.0583,0.0495,0.0577,0.0587,0.0605,0.0646,0.065,0.0625,0.0621,0.0685,0.0692,0.0698,0.0764,0.0709,0.0713,0.0716,0.0919,0.0922,0.0925,0,0,0,0,0,0,0.0435,0.0448,0.0571,0.0524,0.0542,0.0582,0.0604,0.0609,0.0615,0.0661,0.0663,0.0622,0.0683,0.0692,0.0736,0.0766,0.0715,0.0719,0.0916,0.092,0.0924,0.0919,0,0,0,0,0,0,0.043,0.0446,0.0445,0.0523,0.0544,0.0618,0.0607,0.0613,0.0632,0.0627,0.066,0.0663,0.0682,0.0729,0.0741,0.0772,0.0723,0.0912,0.0917,0.0922,0.0916,0.0923,0.0929,0,0,0,0,0,0.0424,0.0437,0.0444,0.0458,0.0544,0.0619,0.0632,0.0651,0.0634,0.0643,0.0669,0.066,0.0771,0.0735,0.0748,0.0781,0.0909,0.0916,0.0922,0.0913,0.0921,0.0928,0,0,0,0,0,0,0.0359,0.044,0.0448,0.0481,0.0536,0.0616,0.0629,0.0646,0.0678,0.0663,0.0692,0.0699,0.0754,0.0779,0.0738,0.0863,0.0842,0.0851,0.0831,0.084,0.0846,0.0789,0.0727,0,0,0,0,0,0.035,0.0379,0.0459,0.048,0.0508,0.0566,0.0593,0.0611,0.0658,0.0667,0.0693,0.0737,0.0802,0.0821,0.0874,0.0938,0.0931,0.0974,0.098,0.0985,0.0952,0.0969,0.0971,0.0946,0.0946,0.0946,0,0,0.0322,0.0377,0.0385,0.0468,0.051,0.0542,0.0573,0.0615,0.0633,0.0671,0.0693,0.0756,0.0825,0.0896,0.0924,0.091,0.1,0.0993,0.0996,0.096,0.0975,0.0976,0.0978,0.095,0.0949,0.0949,0,0,0.0299,0.0339,0.0357,0.0404,0.0475,0.0518,0.0524,0.0599,0.0621,0.0676,0.0715,0.0793,0.0867,0.0935,0.0979,0.1059,0.1034,0.1081,0.1061,0.1079,0.1079,0.1079,0.1101,0.1103,0.1081,0.1081,0.1081,0,0.0251,0.0295,0.0371,0.0404,0.0425,0.0498,0.0507,0.0563,0.0636,0.0649,0.067,0.0813,0.089,0.098,0.1024,0.107,0.1058,0.1019,0.108,0.1079,0.1079,0.1102,0.1104,0.1082,0.1082,0.1082,0.1082,0,0.0254,0.0274,0.0291,0.0347,0.0385,0.041,0.0491,0.0515,0.0553,0.0604,0.0691,0.0821,0.0893,0.0966,0.1024,0.1086,0.1073,0.1082,0.1041,0.108,0.1105,0.1106,0.1083,0.1082,0.1082,0.1082,0,0,0.0159,0.0266,0.0263,0.0268,0.035,0.0377,0.0409,0.046,0.0448,0.0568,0.0575,0.0776,0.0836,0.0893,0.0999,0.1045,0.1093,0.1056,0.1057,0.1044,0.111,0.1026,0.102,0.1084,0.1084,0.1084,0.1136,0,0.0119,0.0154,0.0222,0.0219,0.0231,0.0293,0.031,0.0362,0.0413,0.044,0.0605,0.0676,0.0815,0.0863,0.0938,0.1039,0.1091,0.1077,0.1102,0.1103,0.0994,0.1017,0.0993,0.1027,0.1137,0.1137,0.1138,0,0.0081,0.0113,0.0112,0.0141,0.0148,0.0161,0.016,0.0199,0.0267,0.0306,0.0405,0.0503,0.0655,0.0746,0.0927,0.0894,0.0998,0.108,0.1083,0.0991,0.102,0.1006,0.1026,0.1141,0.114,0.114,0.114,0,-0.0031,0.0018,0.0009,0.0023,0.0079,0.0074,0.0107,0.015,0.0165,0.0231,0.0223,0.039,0.0494,0.062,0.0842,0.086,0.0985,0.1035,0.1062,0.1058,0.1035,0.1027,0.1128,0.1128,0.1128,0.1127,0.1127,0,-0.0105,-0.0122,-0.004,-0.0047,-0.0075,-0.0001,-0.0027,0.0005,0.0046,0.0049,0.0172,0.0215,0.0458,0.0575,0.0753,0.0901,0.0927,0.1037,0.1053,0.1038,0.1031,0.112,0.1119,0.1129,0.1129,0.1129,0.1128,0,-0.022,-0.0171,-0.0182,-0.0132,-0.0121,-0.0131,-0.0085,-0.0108,-0.0066,-0.0068,-0.0046,0.0095,0.0245,0.0448,0.0674,0.0792,0.0936,0.0988,0.0954,0.0961,0.1022,0.1021,0.0998,0.0996,0.0993,0.0991,0.0989,0,-0.0277,-0.0288,-0.025,-0.0254,-0.0224,-0.0213,-0.0219,-0.0162,-0.0188,-0.0126,-0.0148,-0.0008,0.0117,0.0376,0.0585,0.08,0.0885,0.0875,0.0915,0.0984,0.1003,0.1005,0.1007,0.0921,0.0919,0.0917,0.0916,0,-0.0375,-0.0354,-0.034,-0.0346,-0.0349,-0.0356,-0.0352,-0.0393,-0.0338,-0.0327,-0.0253,-0.0137,0.0101,0.034,0.0562,0.0694,0.0823,0.084,0.0924,0.0927,0.0906,0.0926,0.0932,0.09,0.0902,0.0903,0.0904,0.0904,-0.045,-0.0452,-0.0422,-0.0437,-0.0432,-0.047,-0.0495,-0.0503,-0.0507,-0.0448,-0.032,-0.0128,0.0083,0.0402,0.0554,0.0682,0.0728,0.0799,0.0807,0.0817,0.0767,0.074,0.0696,0.0696,0.0697,0.0697,0.0697,0,-0.0555,-0.0526,-0.0516,-0.0516,-0.0521,-0.0505,-0.0567,-0.0581,-0.0583,-0.0432,-0.0292,-0.0084,0.0152,0.0359,0.0553,0.0662,0.0703,0.0668,0.0736,0.075,0.0762,0.0714,0.0627,0.0627,0.0627,0.0627,0,0,-0.0608,-0.0601,-0.0568,-0.058,-0.0578,-0.0614,-0.065,-0.0645,-0.0557,-0.0397,-0.0227,-0.0009,0.0219,0.0323,0.047,0.0577,0.064,0.0569,0.0619,0.07,0.0711,0.0828,0.0765,0,0,0,0,0]}],[{"header":{"parameterUnit":"m.s-1","parameterCategory":2,"la1":30.2991,"la2":30.254,"lo1":-89.0895,"lo2":-89.0444,"dy":0.0017,"dx":0.0017,"nx":28,"ny":28,"refTime":"2025-08-03T03:00:00:Z","depth":"4","parameterNumber":2,"parameterNumberName":"U-component_of_CURRENTS"},"data":[0,0,0,0,0,0,0,0,0,0,0,0,0,0,0,0,0,0,0,0,0,0,0,0,0,0,0,0,0,0,0,0,0,0,0,0,0,0,0,0,0,0,0,0,0,0,0,0,0,0,0,0,0,0,0,0,0,0,-0.0792,-0.0792,0,-0.0855,-0.0856,-0.0856,-0.09,-0.09,-0.09,-0.0901,-0.1003,-0.1005,-0.1008,0,0,0,0,0,0,0,0,0,0,0,0,0,-0.0724,-0.0725,-0.0791,-0.0792,-0.0793,-0.0855,-0.0856,-0.0857,-0.09,-0.09,-0.0901,-0.0901,-0.1002,-0.1005,-0.1008,0,0,0,0,0,0,0,0,0,0,0,0,0,-0.0767,-0.0725,-0.0791,-0.0821,-0.0825,-0.0855,-0.0856,-0.0857,-0.09,-0.09,-0.0901,-0.0901,-0.1001,-0.1005,-0.1008,-0.1024,0,0,-0.102,-0.1022,0,0,0,0,0,0,0,0,-0.0765,-0.077,-0.0816,-0.0819,-0.0823,-0.0869,-0.0869,-0.0915,-0.09,-0.0872,-0.0901,-0.0901,-0.0961,-0.0968,-0.098,-0.1029,-0.1034,-0.102,-0.1023,-0.1024,-0.1025,0,0,0,0,0,0,0,-0.0762,-0.0768,-0.0818,-0.0817,-0.0821,-0.0837,-0.0843,-0.0878,-0.0915,-0.0875,-0.0878,-0.0883,-0.0963,-0.0976,-0.0983,-0.1035,-0.102,-0.1023,-0.1026,-0.1027,-0.1187,-0.1189,0,0,0,0,0,0,-0.0751,-0.0765,-0.0816,-0.0819,-0.0793,-0.0838,-0.0845,-0.0855,-0.0914,-0.0923,-0.0883,-0.0885,-0.097,-0.0978,-0.0986,-0.1052,-0.1024,-0.1028,-0.103,-0.1185,-0.1188,-0.119,0,0,0,0,0,0,-0.0749,-0.0755,-0.0813,-0.0792,-0.0801,-0.0838,-0.0849,-0.0856,-0.0885,-0.092,-0.093,-0.0907,-0.097,-0.0981,-0.1058,-0.1055,-0.1029,-0.1033,-0.1183,-0.1186,-0.1189,-0.1155,0,0,0,0,0,0,-0.0747,-0.0754,-0.077,-0.0792,-0.0801,-0.0846,-0.0849,-0.0857,-0.0887,-0.0891,-0.0944,-0.0952,-0.0971,-0.1052,-0.1061,-0.1059,-0.1036,-0.118,-0.1184,-0.1188,-0.1154,-0.1157,-0.1159,0,0,0,0,0,-0.0745,-0.0752,-0.0771,-0.0777,-0.0818,-0.0847,-0.0855,-0.0882,-0.0888,-0.0909,-0.096,-0.0952,-0.1082,-0.1058,-0.1068,-0.1066,-0.1178,-0.1183,-0.1187,-0.1153,-0.1156,-0.1159,0,0,0,0,0,0,-0.0737,-0.0758,-0.0778,-0.0796,-0.083,-0.0855,-0.0872,-0.089,-0.0945,-0.0956,-0.0986,-0.1,-0.1072,-0.1084,-0.1057,-0.1129,-0.1125,-0.1132,-0.1095,-0.1099,-0.1102,-0.1127,-0.1039,0,0,0,0,0,-0.0741,-0.0744,-0.0785,-0.0797,-0.0817,-0.0849,-0.0868,-0.0891,-0.0933,-0.0956,-0.1007,-0.1055,-0.1094,-0.111,-0.1168,-0.1198,-0.1212,-0.1206,-0.1209,-0.121,-0.1242,-0.126,-0.1266,-0.1205,-0.1205,-0.1204,0,0,-0.0732,-0.075,-0.0749,-0.0794,-0.082,-0.0856,-0.0862,-0.0896,-0.0934,-0.096,-0.1045,-0.1085,-0.1117,-0.1168,-0.1195,-0.1172,-0.1231,-0.1216,-0.1217,-0.1249,-0.1266,-0.1271,-0.1276,-0.1208,-0.1207,-0.1207,0,0,-0.0724,-0.0745,-0.0758,-0.0785,-0.0834,-0.0863,-0.0877,-0.0937,-0.0975,-0.106,-0.1081,-0.1134,-0.1209,-0.1221,-0.1231,-0.1287,-0.1266,-0.1287,-0.129,-0.1305,-0.131,-0.1314,-0.1308,-0.1312,-0.126,-0.126,-0.126,0,-0.072,-0.0746,-0.0768,-0.0798,-0.0823,-0.0868,-0.0906,-0.0947,-0.1031,-0.1064,-0.1098,-0.1217,-0.1239,-0.1262,-0.1279,-0.129,-0.1288,-0.126,-0.1305,-0.131,-0.1314,-0.1307,-0.1312,-0.1259,-0.1259,-0.1259,-0.1259,0,-0.0732,-0.0758,-0.0766,-0.0819,-0.0856,-0.0885,-0.095,-0.101,-0.1073,-0.1114,-0.1207,-0.1263,-0.1326,-0.1318,-0.1316,-0.1341,-0.1324,-0.1319,-0.1283,-0.1318,-0.1309,-0.1314,-0.1257,-0.1257,-0.1258,-0.1258,0,0,-0.0704,-0.0763,-0.0769,-0.0794,-0.0869,-0.0895,-0.0971,-0.1044,-0.1091,-0.1188,-0.1256,-0.1318,-0.1352,-0.1371,-0.1365,-0.1363,-0.1373,-0.1346,-0.1347,-0.1317,-0.1388,-0.1275,-0.127,-0.1358,-0.136,-0.1361,-0.1354,0,-0.0714,-0.0757,-0.0799,-0.0846,-0.0873,-0.0939,-0.1001,-0.1069,-0.1154,-0.1238,-0.1284,-0.136,-0.1362,-0.1391,-0.1397,-0.1393,-0.1393,-0.1376,-0.1382,-0.1383,-0.1259,-0.1275,-0.1366,-0.1358,-0.136,-0.136,-0.1361,0,-0.0718,-0.0747,-0.0792,-0.0855,-0.0878,-0.0924,-0.1027,-0.1086,-0.119,-0.1264,-0.1345,-0.1398,-0.1432,-0.1442,-0.1459,-0.1441,-0.1433,-0.1421,-0.142,-0.1342,-0.1282,-0.133,-0.1371,-0.137,-0.137,-0.1369,-0.1368,0,-0.0667,-0.0739,-0.0769,-0.0786,-0.0874,-0.0922,-0.0984,-0.1091,-0.1149,-0.1278,-0.1343,-0.1415,-0.1456,-0.1475,-0.1471,-0.1466,-0.148,-0.1465,-0.136,-0.1351,-0.1466,-0.1462,-0.1499,-0.1499,-0.1499,-0.1499,-0.1499,0,-0.0635,-0.0659,-0.0748,-0.0752,-0.0795,-0.0887,-0.096,-0.1036,-0.1168,-0.1224,-0.1342,-0.1401,-0.1468,-0.1486,-0.1484,-0.1429,-0.1492,-0.1379,-0.1349,-0.1449,-0.1444,-0.1467,-0.1463,-0.1499,-0.1499,-0.1499,-0.1499,0,-0.0563,-0.061,-0.0645,-0.0742,-0.0758,-0.0794,-0.0914,-0.0978,-0.1113,-0.1202,-0.1244,-0.1378,-0.139,-0.1428,-0.1444,-0.1417,-0.1394,-0.1361,-0.1458,-0.1432,-0.1252,-0.1247,-0.1247,-0.1243,-0.124,-0.1237,-0.1235,0,-0.0535,-0.054,-0.0607,-0.0611,-0.0652,-0.072,-0.0763,-0.0917,-0.0998,-0.1167,-0.12,-0.1268,-0.1332,-0.1267,-0.1318,-0.1301,-0.1291,-0.1289,-0.1292,-0.1259,-0.123,-0.1231,-0.123,-0.123,-0.1229,-0.1228,-0.1227,0,-0.0483,-0.0507,-0.0527,-0.0531,-0.0565,-0.0612,-0.0702,-0.0752,-0.0934,-0.1047,-0.1129,-0.1167,-0.1172,-0.1188,-0.1178,-0.1173,-0.1299,-0.1255,-0.1262,-0.1265,-0.1238,-0.1213,-0.1216,-0.1216,-0.1218,-0.1219,-0.1219,0,-0.045,-0.0444,-0.046,-0.0453,-0.0479,-0.0516,-0.0577,-0.0681,-0.0769,-0.0979,-0.0982,-0.1066,-0.1144,-0.112,-0.1114,-0.1093,-0.1083,-0.1079,-0.1095,-0.1108,-0.1067,-0.1013,-0.0904,0,0,0,0,0,-0.0424,-0.0389,-0.0382,-0.0381,-0.0411,-0.0432,-0.0541,-0.0632,-0.0791,-0.0811,-0.0911,-0.092,-0.0944,-0.0989,-0.0933,-0.1037,-0.1074,-0.0972,-0.1075,-0.1153,-0.1166,-0.1132,0,0,0,0,0,0,-0.0395,-0.038,-0.0358,-0.0322,-0.0314,-0.0362,-0.0433,-0.0545,-0.0585,-0.0733,-0.0735,-0.0849,-0.0859,-0.0928,-0.09,-0.0912,-0.096,-0.1022,-0.102,-0.1146,-0.1158,-0.1168,-0.1137,0,0,0,0,0]},{"header":{"parameterUnit":"m.s-1","parameterCategory":2,"la1":30.2991,"la2":30.254,"lo1":-89.0895,"lo2":-89.0444,"dy":0.0017,"dx":0.0017,"nx":28,"ny":28,"refTime":"2025-08-03T03:00:00:Z","depth":"4","parameterNumber":3,"parameterNumberName":"V-component_of_CURRENTS"},"data":[0,0,0,0,0,0,0,0,0,0,0,0,0,0,0,0,0,0,0,0,0,0,0,0,0,0,0,0,0,0,0,0,0,0,0,0,0,0,0,0,0,0,0,0,0,0,0,0,0,0,0,0,0,0,0,0,0,0,-0.0504,-0.0504,0,-0.0484,-0.0483,-0.0483,-0.0459,-0.0459,-0.0459,-0.0459,-0.0458,-0.0458,-0.0458,0,0,0,0,0,0,0,0,0,0,0,0,0,-0.0482,-0.0483,-0.0504,-0.0504,-0.0505,-0.0484,-0.0483,-0.0482,-0.0459,-0.0459,-0.0459,-0.0459,-0.0458,-0.0458,-0.0458,0,0,0,0,0,0,0,0,0,0,0,0,0,-0.0476,-0.0483,-0.0504,-0.0493,-0.0492,-0.0484,-0.0483,-0.0482,-0.0459,-0.0459,-0.0459,-0.0459,-0.0458,-0.0458,-0.0458,-0.0458,0,0,-0.0458,-0.0458,0,0,0,0,0,0,0,0,-0.0477,-0.0477,-0.0495,-0.0494,-0.0493,-0.0477,-0.0475,-0.0476,-0.0459,-0.0468,-0.0459,-0.0459,-0.0469,-0.0468,-0.0458,-0.0458,-0.0458,-0.0458,-0.0458,-0.0458,-0.0458,0,0,0,0,0,0,0,-0.0477,-0.0477,-0.0492,-0.0495,-0.0494,-0.0475,-0.0474,-0.0475,-0.0466,-0.0467,-0.0466,-0.047,-0.0468,-0.0458,-0.0458,-0.0458,-0.0458,-0.0458,-0.0458,-0.0458,-0.047,-0.0471,0,0,0,0,0,0,-0.049,-0.0478,-0.0493,-0.0492,-0.0489,-0.0476,-0.0475,-0.0479,-0.0465,-0.0464,-0.047,-0.0469,-0.0458,-0.0458,-0.0458,-0.0483,-0.0458,-0.0458,-0.0458,-0.047,-0.047,-0.0471,0,0,0,0,0,0,-0.0489,-0.0491,-0.0494,-0.0487,-0.0487,-0.0477,-0.0482,-0.0479,-0.0475,-0.0468,-0.0466,-0.0471,-0.0458,-0.0458,-0.0474,-0.0482,-0.0458,-0.0458,-0.047,-0.047,-0.0471,-0.0517,0,0,0,0,0,0,-0.0489,-0.0491,-0.0497,-0.0488,-0.0488,-0.05,-0.0482,-0.0479,-0.0479,-0.0478,-0.0469,-0.0468,-0.0458,-0.0475,-0.0474,-0.0482,-0.0457,-0.0469,-0.047,-0.047,-0.0515,-0.0519,-0.0523,0,0,0,0,0,-0.0488,-0.0495,-0.0498,-0.05,-0.0497,-0.0501,-0.0499,-0.0489,-0.048,-0.0484,-0.0482,-0.0468,-0.0478,-0.0476,-0.0475,-0.0482,-0.0469,-0.047,-0.047,-0.0514,-0.0519,-0.0523,0,0,0,0,0,0,-0.049,-0.0494,-0.0496,-0.0505,-0.0511,-0.0499,-0.0503,-0.0495,-0.0494,-0.0495,-0.0481,-0.0481,-0.0495,-0.0484,-0.0481,-0.0486,-0.0467,-0.0468,-0.05,-0.0505,-0.0509,-0.0479,-0.0457,0,0,0,0,0,-0.0496,-0.0503,-0.0506,-0.0517,-0.0521,-0.0513,-0.0513,-0.0509,-0.0508,-0.0506,-0.0497,-0.0492,-0.0496,-0.0498,-0.0495,-0.0505,-0.0441,-0.0506,-0.051,-0.0513,-0.0487,-0.0414,-0.0408,-0.0473,-0.0473,-0.0473,0,0,-0.0503,-0.0505,-0.0511,-0.0519,-0.052,-0.0526,-0.0512,-0.052,-0.0521,-0.0509,-0.0507,-0.0507,-0.0502,-0.0512,-0.0516,-0.0506,-0.046,-0.0514,-0.0517,-0.0489,-0.0414,-0.0407,-0.0401,-0.0474,-0.0474,-0.0474,0,0,-0.0518,-0.0523,-0.0533,-0.0539,-0.0548,-0.0542,-0.0548,-0.0541,-0.0535,-0.0543,-0.0533,-0.0534,-0.0538,-0.0529,-0.0528,-0.0548,-0.0484,-0.0555,-0.0551,-0.0481,-0.0474,-0.0468,-0.0371,-0.0355,-0.0557,-0.0557,-0.0557,0,-0.0522,-0.0539,-0.0538,-0.0549,-0.056,-0.0552,-0.0567,-0.0557,-0.0555,-0.0549,-0.055,-0.0533,-0.0538,-0.0534,-0.0546,-0.0555,-0.0493,-0.0539,-0.0484,-0.0476,-0.0468,-0.037,-0.0352,-0.0559,-0.0559,-0.0558,-0.0558,0,-0.0543,-0.0559,-0.0568,-0.0578,-0.0589,-0.0602,-0.0599,-0.0593,-0.0586,-0.0573,-0.0564,-0.0558,-0.0539,-0.0553,-0.0561,-0.0521,-0.0487,-0.0498,-0.047,-0.0464,-0.0362,-0.0342,-0.0562,-0.0562,-0.0561,-0.056,0,0,-0.0537,-0.0574,-0.0578,-0.0598,-0.0608,-0.0621,-0.0619,-0.0616,-0.0601,-0.0589,-0.0558,-0.0573,-0.0549,-0.0543,-0.0543,-0.0494,-0.0402,-0.0477,-0.0472,-0.0374,-0.0216,-0.0257,-0.0238,-0.0406,-0.0403,-0.0401,-0.0163,0,-0.0552,-0.0588,-0.0601,-0.0637,-0.0655,-0.0654,-0.0653,-0.0647,-0.0625,-0.0587,-0.0561,-0.0537,-0.0551,-0.054,-0.0493,-0.0427,-0.0353,-0.0463,-0.024,-0.0232,-0.0265,-0.0219,-0.0392,-0.0148,-0.0144,-0.014,-0.0138,0,-0.0564,-0.0588,-0.0632,-0.067,-0.0678,-0.0698,-0.0692,-0.0689,-0.0634,-0.0609,-0.0562,-0.0523,-0.0454,-0.0463,-0.0304,-0.0372,-0.0286,-0.0228,-0.0218,-0.022,-0.0237,-0.0156,-0.0101,-0.0104,-0.0107,-0.0109,-0.0112,0,-0.0562,-0.061,-0.0652,-0.0666,-0.0698,-0.0718,-0.073,-0.0701,-0.0689,-0.0609,-0.0565,-0.0478,-0.0415,-0.0305,-0.0197,-0.0234,0.0001,-0.0034,0.0027,0.0027,0.0014,0.0004,0.0112,0.0112,0.0111,0.0111,0.011,0,-0.0564,-0.0598,-0.0662,-0.0681,-0.0721,-0.0743,-0.0758,-0.0737,-0.0695,-0.0655,-0.0577,-0.0498,-0.0371,-0.0236,-0.0145,0.0009,0.0054,0.0063,0.0088,-0.0012,-0.0028,0.0029,0.0016,0.0119,0.0117,0.0116,0.0114,0,-0.0552,-0.0592,-0.0642,-0.0701,-0.0722,-0.0753,-0.0792,-0.0783,-0.0738,-0.0667,-0.0634,-0.0483,-0.0305,-0.0171,0.0034,0.0078,0.0221,0.0266,0.019,0.0201,0.0199,0.0181,0.0381,0.0382,0.0382,0.0383,0.0383,0,-0.055,-0.0575,-0.0657,-0.069,-0.0725,-0.0777,-0.0796,-0.0798,-0.0779,-0.0651,-0.06,-0.0417,-0.0307,-0.0012,0.0096,0.0303,0.0295,0.0384,0.0256,0.0224,0.0229,0.021,0.0192,0.0384,0.0384,0.0384,0.0384,0,-0.0538,-0.0575,-0.0619,-0.0682,-0.0732,-0.0775,-0.0806,-0.0796,-0.0758,-0.0715,-0.0533,-0.0381,-0.0174,0.0007,0.0165,0.0293,0.0326,0.0389,0.0388,0.0269,0.023,0.023,0.0211,0.0386,0.0386,0.0386,0.0386,0,-0.0535,-0.0562,-0.062,-0.0672,-0.0731,-0.0757,-0.0781,-0.0748,-0.0725,-0.0599,-0.0531,-0.0315,-0.019,0.0007,0.0152,0.027,0.0274,0.0282,0.0286,0.0285,0.0141,0.007,0.0232,0,0,0,0,0,-0.0525,-0.0552,-0.0602,-0.0666,-0.0721,-0.0751,-0.0772,-0.0784,-0.0748,-0.0619,-0.0581,-0.0388,-0.0147,-0.0029,0.0087,0.0122,0.0266,0.0255,0.027,0.0396,0.0394,0.0231,0,0,0,0,0,0,-0.0524,-0.0567,-0.0591,-0.0643,-0.0684,-0.0736,-0.0752,-0.0729,-0.0662,-0.0598,-0.046,-0.0383,-0.0147,-0.0204,0.0089,0.0125,0.0142,0.037,0.0371,0.0397,0.0395,0.0393,0.0225,0,0,0,0,0]}]]